Location: Newark
(58.8333°N, 23.5833°E)
Time: 06:09:35
(UTC+00:00)

Tiros 1 despin weight - Pass Details

Date: 23 November 2019
Orbit: 594 x 642 km, 48.2° (Epoch: 15 December)

Event Time Altitude Azimuth Distance (km) Brightness Sun altitude
Rises 12:01:51 0° 234° (SW) 2,826 ? 7.7°
Reaches altitude 10° 12:04:37 10° 217° (SW) 1,927 ? 7.5°
Maximum altitude 12:07:47 20° 171° (S) 1,410 ? 7.3°
Drops below altitude 10° 12:10:59 10° 124° (SE) 1,938 ? 7.1°
Sets 12:13:46 0° 108° (ESE) 2,849 ? 6.9°
